Los Angeles, CA (90077)

11:46 PM PDT on August 24, 2016 (GMT -0700)
Beverly Glen | | Change Station

Elev 843 ft 34.11 °N, 118.45 °W | Updated 12 minutes ago

Clear
Clear
61.2 °F
Feels Like 61.2 °F
N
0.0
Wind Variable Wind from SSE

Today
High -- | Low -- °F
--% Chance of Precip.
Yesterday
High -- | Low -- °F
Precip. -- in
Pressure 29.96 in
Visibility 10.0 miles
Clouds Clear
Dew Point 55 °F
Humidity 79%
Rainfall 0.00 in
Snow Depth Not available.
6:22 AM 7:29 PM
Waning Gibbous, 49% visible
METAR KSMO 250551Z 26003KT 10SM CLR 19/14 A2996 RMK AO2 SLP144 T01890139 10222 20183 51007 $
Pressure 29.96 in
Visibility 10.0 miles
Clouds Clear
Dew Point 55 °F
Humidity 79%
Rainfall 0.00 in
Snow Depth Not available.
6:22 AM 7:29 PM
Waning Gibbous, 49% visible
METAR KSMO 250551Z 26003KT 10SM CLR 19/14 A2996 RMK AO2 SLP144 T01890139 10222 20183 51007 $

10-Day Weather Forecast

Almanac

Astronomy

Aug. 24, 2016 Rise Set
Actual Time
Civil Twilight
Nautical Twilight
Astronomical Twilight
Moon
Length of Visible Light
Length of Day
Tomorrow will be .
, % of the Moon is Illuminated

Today's Extremes

State Highs State Lows

Community

WunderPhotos

Upload Photos

1,934,803 photos uploaded!

WunderBlog® & News

Nearby

Air Quality

  Air Quality AQ Index Pollutant
Not available.

Snow Depth

Station Depth Elevation

Earthquake Activity

City Distance Mag. Time & Date
Minimum magnitude displayed is 2.5.

Coastal Water Temperatures

Place Temperature

Stations

Nearby Weather Stations

Station Location Temp. Windchill Dew Point Humidity Wind Precip. Elev Updated Type
                   

Watches & Warnings

There are currently no watches in effect.